This is the latest recevied weather packets stored in our database for station/object OK1OBR-13. If no packets are shown the sender has not sent any weather packets the latest 1 day(s).
| Time | Temp. | Humidity | Pressure | Rain* | Wind** | Luminosity | Snow |
|---|---|---|---|---|---|---|---|
| 1778016301 | 14.44° C | 61% | 927.3 hPa | 0 mm | 1.34 m/s, 174° | - | - |
| 1778016242 | 14.44° C | 61% | 927.2 hPa | 0 mm | 1.79 m/s, 161° | - | - |
| 1778016181 | 14.44° C | 61% | 927.2 hPa | 0 mm | 1.79 m/s, 148° | - | - |
| 1778016121 | 14.44° C | 61% | 927.2 hPa | 0 mm | 1.34 m/s, 134° | - | - |
| 1778016065 | 14.44° C | 61% | 927.2 hPa | 0 mm | 1.34 m/s, 143° | - | - |
| 1778016001 | 14.44° C | 61% | 927.3 hPa | 0 mm | 1.34 m/s, 144° | - | - |
| 1778015940 | 14.44° C | 61% | 927.3 hPa | 0 mm | 1.34 m/s, 142° | - | - |
| 1778015881 | 14.44° C | 61% | 927.2 hPa | 0 mm | 1.34 m/s, 128° | - | - |
| 1778015821 | 14.44° C | 61% | 927.5 hPa | 0 mm | 1.34 m/s, 157° | - | - |
| 1778015761 | 14.44° C | 61% | 927.6 hPa | 0 mm | 1.34 m/s, 142° | - | - |
| 1778015701 | 14.44° C | 61% | 927.4 hPa | 0 mm | 1.79 m/s, 123° | - | - |
| 1778015641 | 14.44° C | 61% | 927.4 hPa | 0 mm | 1.79 m/s, 122° | - | - |
| 1778015580 | 14.44° C | 61% | 927.4 hPa | 0 mm | 2.24 m/s, 126° | - | - |
| 1778015521 | 14.44° C | 61% | 927.5 hPa | 0 mm | 1.34 m/s, 152° | - | - |
| 1778015461 | 14.44° C | 61% | 927.3 hPa | 0 mm | 1.34 m/s, 143° | - | - |
| 1778015401 | 14.44° C | 61% | 927.4 hPa | 0 mm | 1.34 m/s, 129° | - | - |
| 1778015341 | 14.44° C | 61% | 927.5 hPa | 0 mm | 1.34 m/s, 126° | - | - |
| 1778015281 | 14.44° C | 61% | 927.6 hPa | 0 mm | 1.34 m/s, 127° | - | - |
| 1778015221 | 14.44° C | 61% | 927.5 hPa | 0 mm | 0.89 m/s, 124° | - | - |
| 1778015162 | 14.44° C | 61% | 927.7 hPa | 0 mm | 1.34 m/s, 151° | - | - |
| 1778015101 | 14.44° C | 61% | 927.3 hPa | 0 mm | 1.79 m/s, 150° | - | - |
| 1778015041 | 14.44° C | 61% | 927.6 hPa | 0 mm | 1.79 m/s, 143° | - | - |
| 1778014981 | 14.44° C | 61% | 927.6 hPa | 0 mm | 1.34 m/s, 132° | - | - |
| 1778014921 | 14.44° C | 61% | 927.4 hPa | 0 mm | 0.89 m/s, 149° | - | - |
| 1778014860 | 14.44° C | 61% | 927.5 hPa | 0 mm | 0.89 m/s, 142° | - | - |
* Rain since midnight (hover to see other rain measurements)
** Current wind speed in m/s (hover to see current wind gust speed)